KDYR  Dyersburg Regional Airport

Add Bookmark

Dyersburg, Tennessee, United States

Status Useage
Operational Public
Latitude Longitude
35° 59' 52" N 89° 24' 23" W
35.997972 -89.406583
Local (DST -5) UTC (GMT -6)
Oct 31, 2014 08:32 Nov 1, 2014 01:32
Sunrise-Sunset Local UTC
Begin Civil Twilight 06:52 11:52
Sunrise 07:18 12:18
Sunset 06:03 23:03
End Civil Twilight 06:30 23:30

Current Weather

METAR Observed VFR
KDYR 010115Z 36010KT 10SM CLR 06/M08 A3031 Sat, Nov 1, 2014 @ 01:15 UTC
(17 Minutes ago)
Visual Flight Rules
Wind Visibility Clouds Conditions
360° at 10 knots (12 mph) 10 statute miles
  • Clear skies
  • No significant weather
Temperatures Readings Precipitation
Current Temp 6°C (43°F)
Dewpoint -8°C (18°F)
Humidity 36%
Altimeter 30.31"Hg
Sea Level Pressure 1026mb
Field Elevation 337'
None Recorded

Additional weather within a 50nm radius of KDYR

Map ICAO Location
KHKA 20.9nm W (261°)
KBYH 26.2nm W (266°)
KUCY 30.7nm N (042°)
KMKL 33.8nm S (135°)
KNQA 44.6nm S (211°)

24 Hour Weather History

Loading
-

24 Hour Weather Graphs

Loading
-

CheckWX.com is intended as a tool to help pilots better visualize weather data. It is not intended as a substitute for an official weather briefing obtained from a Flight Service Station. CheckWX.com does not meet the FAA requirements for an official pre-flight weather briefing. Therefore, it's important that pilots still call and obtain an official FSS pre-flight weather briefing.